FW1574 Weather Reports


Display with metric or nautical units.
time (UTC)temp
F
wind
direction
speed
MPH
gust
MPH
rain 1hr
in
rain 24hr
in
rain mn
in
humidity
%
barometer
mb
20260905232551 81 5 0.0 1.0 0.00 0.00 0.00 78 1010.1
20260905232051 82 5 0.0 1.0 0.00 0.00 0.00 77 1010.0
20260905231552 82 5 0.0 1.0 0.00 0.00 0.00 78 1009.9
20260905231052 82 5 0.0 1.0 0.00 0.00 0.00 78 1009.9
20260905230551 82 5 0.0 0.0 0.00 0.00 0.00 77 1009.8
20260905230053 82 5 0.0 1.0 0.00 0.00 0.00 77 1009.9
20260905225551 82 5 0.0 1.0 0.00 0.00 0.00 77 1010.0
20260905225048 82 5 0.0 2.0 0.00 0.00 0.00 77 1009.8
20260905224558 83 5 0.0 2.0 0.00 0.00 0.00 76 1009.7
20260905224047 83 94 1.0 2.0 0.00 0.00 0.00 71 1009.7
20260905223547 82 190 0.0 0.0 0.00 0.00 0.00 75 1009.9
20260905223047 82 190 0.0 0.0 0.00 0.00 0.00 75 1010.0
20260905222546 82 190 0.0 0.0 0.00 0.00 0.00 75 1010.0
20260905222044 82 190 0.0 0.0 0.00 0.00 0.00 74 1010.2
20260905221548 82 190 0.0 1.0 0.00 0.00 0.00 72 1010.3
20260905221044 82 190 0.0 2.0 0.00 0.00 0.00 73 1010.3
20260905220547 82 190 0.0 2.0 0.00 0.00 0.00 73 1010.2
20260905220043 82 190 0.0 2.0 0.00 0.00 0.00 73 1010.4
20260905215543 83 190 0.0 2.0 0.00 0.00 0.00 73 1010.5
20260905215043 83 190 0.0 2.0 0.00 0.00 0.00 73 1010.5
20260905214543 83 190 0.0 2.0 0.00 0.00 0.00 70 1010.6
20260905214043 84 9 0.0 2.0 0.00 0.00 0.00 69 1010.5
20260905213543 84 9 0.0 2.0 0.00 0.00 0.00 70 1010.7
20260905213042 84 5 0.0 3.0 0.00 0.00 0.00 70 1010.6
20260905212542 84 136 1.0 3.0 0.00 0.00 0.00 68 1010.4
20260905212043 84 110 1.0 3.0 0.00 0.00 0.00 68 1010.6
20260905211546 83 5 1.0 3.0 0.00 0.00 0.00 70 1010.7
20260905211041 83 5 0.0 3.0 0.00 0.00 0.00 71 1010.8
20260905210543 83 109 0.0 1.0 0.00 0.00 0.00 73 1010.9
20260905210057 83 326 0.0 1.0 0.00 0.00 0.00 72 1010.6
20260905205541 83 326 0.0 1.0 0.00 0.00 0.00 72 1010.7
20260905205041 83 138 0.0 0.0 0.00 0.00 0.00 71 1010.9
20260905204541 83 5 0.0 1.0 0.00 0.00 0.00 72 1010.9
20260905204044 82 210 0.0 1.0 0.00 0.00 0.00 73 1011.0
20260905203544 82 333 0.0 0.0 0.00 0.00 0.00 72 1010.8
20260905203042 82 78 0.0 0.0 0.00 0.00 0.00 71 1011.0
20260905202541 82 348 0.0 2.0 0.00 0.00 0.00 72 1011.0
20260905202040 82 349 0.0 2.0 0.00 0.00 0.00 70 1011.1
20260905201540 82 9 0.0 2.0 0.00 0.00 0.00 69 1011.1
20260905201039 83 37 0.0 1.0 0.00 0.00 0.00 69 1011.0
20260905200539 83 9 0.0 4.0 0.00 0.00 0.00 68 1010.7
20260905200052 85 13 0.0 7.0 0.00 0.00 0.00 66 1010.9
20260905195540 87 345 1.0 7.0 0.00 0.00 0.00 61 1010.8
20260905195039 89 5 1.0 5.0 0.00 0.00 0.00 61 1010.9
20260905194539 92 46 1.0 7.0 0.00 0.00 0.00 58 1010.7
20260905194039 96 347 0.0 0.0 0.00 0.00 0.00 49 1010.7
20260905193538 95 28 0.0 0.0 0.00 0.00 0.00 48 1010.3
20260905193039 95 13 0.0 0.0 0.00 0.00 0.00 52 1010.4
20260905192538 95 80 0.0 0.0 0.00 0.00 0.00 50 1010.5
20260905192040 95 17 0.0 0.0 0.00 0.00 0.00 53 1010.4
20260905191541 95 34 0.0 0.0 0.00 0.00 0.00 51 1010.4
20260905191037 95 48 0.0 0.0 0.00 0.00 0.00 49 1010.3
20260905190536 96 347 0.0 0.0 0.00 0.00 0.00 50 1010.4
20260905190036 96 250 0.0 0.0 0.00 0.00 0.00 50 1010.5
20260905185539 96 69 0.0 0.0 0.00 0.00 0.00 52 1010.6
20260905185037 95 345 0.0 0.0 0.00 0.00 0.00 53 1010.7
20260905184537 95 246 0.0 0.0 0.00 0.00 0.00 55 1010.8
20260905184034 94 101 0.0 0.0 0.00 0.00 0.00 56 1010.7
20260905183535 94 175 0.0 0.0 0.00 0.00 0.00 56 1010.7
20260905183033 95 295 0.0 0.0 0.00 0.00 0.00 53 1010.7
20260905182533 95 316 0.0 0.0 0.00 0.00 0.00 53 1010.7
20260905182033 95 11 0.0 0.0 0.00 0.00 0.00 52 1010.8
20260905181532 95 284 0.0 0.0 0.00 0.00 0.00 55 1010.9
20260905181030 95 305 0.0 0.0 0.00 0.00 0.00 55 1011.1
20260905180529 94 134 0.0 0.0 0.00 0.00 0.00 53 1011.1
20260905180033 94 76 0.0 0.0 0.00 0.00 0.00 57 1011.1
20260905175528 92 10 0.0 0.0 0.00 0.00 0.00 62 1011.2
20260905175027 92 10 0.0 0.0 0.00 0.00 0.00 61 1011.2
20260905174527 92 10 0.0 0.0 0.00 0.00 0.00 62 1011.3
20260905174031 92 10 0.0 0.0 0.00 0.00 0.00 59 1011.3
20260905173526 92 147 0.0 0.0 0.00 0.00 0.00 60 1011.3
20260905173025 94 147 0.0 0.0 0.00 0.00 0.00 56 1011.4
20260905172524 95 304 0.0 0.0 0.00 0.00 0.00 56 1011.5
20260905172023 94 82 0.0 0.0 0.00 0.00 0.00 57 1011.6
20260905171537 94 96 0.0 0.0 0.00 0.00 0.00 58 1011.6
20260905171021 94 59 0.0 0.0 0.00 0.00 0.00 58 1011.7
20260905170521 94 5 0.0 0.0 0.00 0.00 0.00 59 1011.7
20260905170027 93 328 0.0 0.0 0.00 0.00 0.00 60 1011.8
20260905165520 93 98 0.0 0.0 0.00 0.00 0.00 60 1011.8
20260905165018 93 344 0.0 0.0 0.00 0.00 0.00 60 1011.9
20260905164517 93 321 0.0 0.0 0.00 0.00 0.00 61 1011.9
20260905164017 92 108 0.0 0.0 0.00 0.00 0.00 62 1012.1
20260905163516 92 360 0.0 0.0 0.00 0.00 0.00 62 1012.2
20260905163019 92 360 0.0 0.0 0.00 0.00 0.00 60 1012.2
20260905162515 92 55 0.0 0.0 0.00 0.00 0.00 62 1012.3
20260905162017 91 100 0.0 0.0 0.00 0.00 0.00 63 1012.3
20260905161519 91 67 0.0 0.0 0.00 0.00 0.00 65 1012.3
20260905161013 91 330 0.0 0.0 0.00 0.00 0.00 66 1012.3
20260905160511 91 88 0.0 0.0 0.00 0.00 0.00 65 1012.4
20260905160024 90 53 0.0 0.0 0.00 0.00 0.00 67 1012.5
20260905155509 90 49 0.0 0.0 0.00 0.00 0.00 68 1012.5
20260905155007 89 5 0.0 0.0 0.00 0.00 0.00 68 1012.6
20260905154507 89 48 0.0 0.0 0.00 0.00 0.00 68 1012.6
20260905154007 89 51 0.0 0.0 0.00 0.00 0.00 69 1012.7
20260905153510 89 307 0.0 0.0 0.00 0.00 0.00 70 1012.8
20260905153007 88 347 0.0 0.0 0.00 0.00 0.00 72 1012.8
20260905152504 88 113 0.0 0.0 0.00 0.00 0.00 71 1012.8
20260905152004 87 86 0.0 0.0 0.00 0.00 0.00 72 1012.8
20260905151502 87 310 0.0 0.0 0.00 0.00 0.00 76 1012.9
20260905151100 86 310 0.0 0.0 0.00 0.00 0.00 74 1012.9
20260905150559 85 347 0.0 0.0 0.00 0.00 0.00 75 1013.0
20260905150059 85 327 0.0 0.0 0.00 0.00 0.00 75 1013.0
20260905145558 85 327 0.0 0.0 0.00 0.00 0.00 76 1013.0
20260905145056 85 258 0.0 0.0 0.00 0.00 0.00 76 1013.0
20260905144557 84 243 0.0 0.0 0.00 0.00 0.00 77 1013.1
20260905144056 84 336 0.0 0.0 0.00 0.00 0.00 78 1013.1
20260905143554 84 336 0.0 0.0 0.00 0.00 0.00 79 1013.2
20260905143054 84 314 0.0 0.0 0.00 0.00 0.00 79 1013.2
20260905142554 83 78 0.0 0.0 0.00 0.00 0.00 80 1013.2
20260905142051 83 78 0.0 0.0 0.00 0.00 0.00 80 1013.2
20260905141550 82 78 0.0 0.0 0.00 0.00 0.00 81 1013.2
20260905141048 82 78 0.0 0.0 0.00 0.00 0.00 82 1013.2
20260905140549 81 78 0.0 0.0 0.00 0.00 0.00 83 1013.2
20260905140045 81 78 0.0 0.0 0.00 0.00 0.00 85 1013.3
20260905135549 81 78 0.0 0.0 0.00 0.00 0.00 87 1013.4
20260905135045 80 78 0.0 0.0 0.00 0.00 0.00 86 1013.4
20260905134550 80 78 0.0 0.0 0.00 0.00 0.00 87 1013.4
20260905134044 79 78 0.0 0.0 0.00 0.00 0.00 91 1013.4
20260905133540 77 79 0.0 0.0 0.00 0.00 0.00 95 1013.5
20260905133040 76 79 0.0 0.0 0.00 0.00 0.00 96 1013.5
20260905132540 76 76 0.0 0.0 0.00 0.00 0.00 96 1013.6
20260905132040 76 66 0.0 0.0 0.00 0.00 0.00 96 1013.7
20260905131542 76 66 0.0 0.0 0.00 0.00 0.00 96 1013.7
20260905131039 75 66 0.0 0.0 0.00 0.00 0.00 96 1013.8
20260905130540 75 66 0.0 0.0 0.00 0.00 0.00 96 1013.8
20260905130038 75 66 0.0 0.0 0.00 0.00 0.00 96 1013.7
20260905125538 75 66 0.0 0.0 0.00 0.00 0.00 96 1013.7
20260905125038 74 66 0.0 0.0 0.00 0.00 0.00 96 1013.7
20260905124546 74 66 0.0 0.0 0.00 0.00 0.00 96 1013.6
20260905124037 74 66 0.0 0.0 0.00 0.00 0.00 96 1013.6
20260905123537 74 66 0.0 0.0 0.00 0.00 0.00 96 1013.6
20260905123037 73 66 0.0 0.0 0.00 0.00 0.00 96 1013.6
20260905122540 73 66 0.0 0.0 0.00 0.00 0.00 96 1013.5
20260905122036 73 66 0.0 0.0 0.00 0.00 0.00 95 1013.4
20260905121536 73 66 0.0 0.0 0.00 0.00 0.00 95 1013.4
20260905121034 73 66 0.0 0.0 0.00 0.00 0.00 95 1013.4
20260905120534 73 66 0.0 0.0 0.00 0.00 0.00 95 1013.4
20260905120036 73 66 0.0 0.0 0.00 0.00 0.00 95 1013.4
20260905115533 73 66 0.0 0.0 0.00 0.00 0.00 95 1013.3
20260905115034 73 66 0.0 0.0 0.00 0.00 0.00 95 1013.3
20260905114534 73 66 0.0 0.0 0.00 0.00 0.00 95 1013.3
20260905114032 73 66 0.0 0.0 0.00 0.00 0.00 95 1013.3
20260905113532 73 66 0.0 0.0 0.00 0.00 0.00 94 1013.2
20260905113030 73 66 0.0 0.0 0.00 0.00 0.00 94 1013.1
20260905112530 73 66 0.0 0.0 0.00 0.00 0.00 94 1012.9
20260905112030 73 66 0.0 0.0 0.00 0.00 0.00 94 1013.0
20260905111528 73 66 0.0 0.0 0.00 0.00 0.00 94 1012.9
20260905111028 73 66 0.0 0.0 0.00 0.00 0.00 94 1012.8
20260905110526 73 66 0.0 0.0 0.00 0.00 0.00 94 1012.7
20260905110026 73 66 0.0 0.0 0.00 0.00 0.00 94 1012.7
20260905105526 73 66 0.0 0.0 0.00 0.00 0.00 94 1012.6
20260905105025 73 66 0.0 0.0 0.00 0.00 0.00 94 1012.6
20260905104535 73 66 0.0 0.0 0.00 0.00 0.00 94 1012.4
20260905104028 73 66 0.0 0.0 0.00 0.00 0.00 94 1012.4
20260905103526 73 66 0.0 0.0 0.00 0.00 0.00 94 1012.4
20260905103029 73 66 0.0 0.0 0.00 0.00 0.00 94 1012.4
20260905102525 73 66 0.0 0.0 0.00 0.00 0.00 94 1012.4
20260905102025 73 66 0.0 0.0 0.00 0.00 0.00 94 1012.3
20260905101525 74 66 0.0 0.0 0.00 0.00 0.00 94 1012.4
20260905101023 74 66 0.0 0.0 0.00 0.00 0.00 94 1012.4
20260905100524 74 66 0.0 0.0 0.00 0.00 0.00 94 1012.4
20260905100023 74 66 0.0 0.0 0.00 0.00 0.00 94 1012.4
20260905095522 74 66 0.0 0.0 0.00 0.00 0.00 94 1012.4
20260905095022 74 66 0.0 0.0 0.00 0.00 0.00 94 1012.4
20260905094522 74 66 0.0 0.0 0.00 0.00 0.00 94 1012.3
20260905094021 74 66 0.0 0.0 0.00 0.00 0.00 94 1012.3
20260905093521 74 66 0.0 0.0 0.00 0.00 0.00 93 1012.2
20260905093021 74 66 0.0 0.0 0.00 0.00 0.00 94 1012.2
20260905092520 74 66 0.0 0.0 0.00 0.00 0.00 94 1012.1
20260905092019 74 66 0.0 0.0 0.00 0.00 0.00 94 1012.2
20260905091519 74 66 0.0 0.0 0.00 0.00 0.00 94 1012.1
20260905091022 74 66 0.0 0.0 0.00 0.00 0.00 94 1012.0
20260905090519 74 66 0.0 0.0 0.00 0.00 0.00 94 1012.0
20260905090022 74 66 0.0 0.0 0.00 0.00 0.00 94 1012.1
20260905085518 74 66 0.0 0.0 0.00 0.00 0.00 93 1012.1
20260905085023 74 66 0.0 0.0 0.00 0.00 0.00 93 1012.1
20260905084522 74 66 0.0 0.0 0.00 0.00 0.00 93 1012.0
20260905084017 74 66 0.0 0.0 0.00 0.00 0.00 93 1012.1
20260905083517 74 66 0.0 0.0 0.00 0.00 0.00 93 1012.1
20260905083018 75 66 0.0 0.0 0.00 0.00 0.00 93 1012.1
20260905082518 75 66 0.0 0.0 0.00 0.00 0.00 93 1012.1
20260905082016 75 66 0.0 0.0 0.00 0.00 0.00 93 1012.1
20260905081515 75 66 0.0 0.0 0.00 0.00 0.00 93 1012.0
20260905081018 75 66 0.0 0.0 0.00 0.00 0.00 93 1011.9
20260905080514 75 66 0.0 0.0 0.00 0.00 0.00 93 1011.9
20260905080029 75 66 0.0 0.0 0.00 0.00 0.00 93 1011.9
20260905075513 75 66 0.0 0.0 0.00 0.00 0.00 93 1011.9
20260905075013 75 66 0.0 0.0 0.00 0.00 0.00 93 1011.9
20260905074513 75 66 0.0 0.0 0.00 0.00 0.00 93 1012.0
20260905074012 75 66 0.0 0.0 0.00 0.00 0.00 93 1012.0
20260905073512 75 66 0.0 0.0 0.00 0.00 0.00 93 1012.0
20260905073029 75 66 0.0 0.0 0.00 0.00 0.00 93 1012.0
20260905072513 75 66 0.0 0.0 0.00 0.00 0.00 93 1012.0
20260905072011 75 66 0.0 0.0 0.00 0.00 0.00 93 1012.0
20260905071511 75 66 0.0 0.0 0.00 0.00 0.00 93 1012.1
20260905071010 75 66 0.0 0.0 0.00 0.00 0.00 93 1012.1
20260905070513 75 66 0.0 0.0 0.00 0.00 0.00 93 1012.0
20260905070010 76 66 0.0 0.0 0.00 0.00 0.00 93 1012.0
20260905065509 76 66 0.0 0.0 0.00 0.00 0.00 93 1012.0
20260905065009 76 66 0.0 0.0 0.00 0.00 0.00 93 1012.1
20260905064512 76 66 0.0 0.0 0.00 0.00 0.00 93 1012.2
20260905064009 76 66 0.0 0.0 0.00 0.00 0.00 93 1012.2
20260905063509 76 66 0.0 0.0 0.00 0.00 0.00 93 1012.3
20260905063009 76 66 0.0 0.0 0.00 0.00 0.00 93 1012.3
20260905062509 76 66 0.0 0.0 0.00 0.00 0.00 93 1012.3
20260905062012 76 66 0.0 0.0 0.00 0.00 0.00 93 1012.2
20260905061508 76 66 0.0 0.0 0.00 0.00 0.00 93 1012.1
20260905061007 76 66 0.0 0.0 0.00 0.00 0.00 93 1012.1
20260905060506 76 66 0.0 0.0 0.00 0.00 0.00 93 1012.2
20260905060007 76 66 0.0 0.0 0.00 0.00 0.00 93 1012.3
20260905055506 76 66 0.0 0.0 0.00 0.00 0.00 93 1012.4
20260905055006 76 66 0.0 0.0 0.00 0.00 0.00 92 1012.5
20260905054506 76 66 0.0 0.0 0.00 0.00 0.00 92 1012.4
20260905054004 76 66 0.0 0.0 0.00 0.00 0.00 91 1012.4
20260905053506 77 66 0.0 0.0 0.00 0.00 0.00 91 1012.4
20260905053004 77 66 0.0 0.0 0.00 0.00 0.00 90 1012.4
20260905052503 77 66 0.0 0.0 0.00 0.00 0.00 91 1012.4
20260905052002 77 66 0.0 0.0 0.00 0.00 0.00 91 1012.3
20260905051502 77 66 0.0 0.0 0.00 0.00 0.00 90 1012.3
20260905051002 78 66 0.0 0.0 0.00 0.00 0.00 90 1012.3
20260905050505 78 66 0.0 0.0 0.00 0.00 0.00 90 1012.3
20260905050001 78 66 0.0 0.0 0.00 0.00 0.00 90 1012.3
20260905045502 78 66 0.0 0.0 0.00 0.00 0.00 91 1012.3
20260905045001 78 66 0.0 0.0 0.00 0.00 0.00 91 1012.2
20260905044503 77 66 0.0 0.0 0.00 0.00 0.00 90 1012.1
20260905044100 77 66 0.0 0.0 0.00 0.00 0.00 90 1012.1
20260905043600 77 66 0.0 0.0 0.00 0.00 0.00 91 1012.3
20260905043200 77 66 0.0 0.0 0.00 0.00 0.00 91 1012.3
20260905042601 77 66 0.0 0.0 0.00 0.00 0.00 91 1012.4
20260905042058 77 66 0.0 0.0 0.00 0.00 0.00 91 1012.5
20260905041558 77 66 0.0 0.0 0.00 0.00 0.00 90 1012.5
20260905041055 78 66 0.0 0.0 0.00 0.00 0.00 89 1012.6
20260905040556 78 66 0.0 0.0 0.00 0.00 0.00 88 1012.7
20260905040115 78 66 0.0 0.0 0.00 0.00 0.00 88 1012.6
20260905035553 78 66 0.0 0.0 0.00 0.00 0.00 88 1012.7
20260905035053 78 66 0.0 0.0 0.00 0.00 0.00 87 1012.7
20260905034558 78 66 0.0 0.0 0.00 0.00 0.00 88 1012.8
20260905034055 78 66 0.0 0.0 0.00 0.00 0.00 88 1012.8
20260905033552 78 66 0.0 0.0 0.00 0.00 0.00 87 1012.9
20260905033055 78 66 0.0 0.0 0.00 0.00 0.00 88 1013.1
20260905032553 78 66 0.0 0.0 0.00 0.00 0.00 88 1013.1
20260905032052 78 66 0.0 0.0 0.00 0.00 0.00 88 1013.1
20260905031553 79 66 0.0 0.0 0.00 0.00 0.00 88 1013.2
20260905031051 79 66 0.0 0.0 0.00 0.00 0.00 88 1013.2
20260905030551 79 9 0.0 0.0 0.00 0.00 0.00 88 1013.3
20260905030051 79 9 0.0 0.0 0.00 0.00 0.00 87 1013.3
20260905025551 80 9 0.0 0.0 0.00 0.00 0.00 87 1013.3
20260905025051 80 9 0.0 0.0 0.00 0.00 0.00 86 1013.3
20260905024551 80 9 0.0 0.0 0.00 0.00 0.00 86 1013.3
20260905024050 80 9 0.0 0.0 0.00 0.00 0.00 86 1013.3
20260905023555 80 9 0.0 0.0 0.00 0.00 0.00 87 1013.3
20260905023058 80 9 0.0 0.0 0.00 0.00 0.00 87 1013.3
20260905022549 80 9 0.0 0.0 0.00 0.00 0.00 87 1013.2
20260905022050 80 9 0.0 0.0 0.00 0.00 0.00 86 1013.2
20260905021552 81 9 0.0 0.0 0.00 0.00 0.00 85 1013.2
20260905021049 82 9 0.0 0.0 0.00 0.00 0.00 83 1013.1
20260905020549 82 9 0.0 0.0 0.00 0.00 0.00 83 1013.2
20260905020050 82 9 0.0 0.0 0.00 0.00 0.00 84 1013.2
20260905015549 82 9 0.0 0.0 0.00 0.00 0.00 84 1013.2
20260905015051 82 9 0.0 0.0 0.00 0.00 0.00 84 1013.2
20260905014548 82 9 0.0 0.0 0.00 0.00 0.00 84 1013.2
20260905014048 81 9 0.0 0.0 0.00 0.00 0.00 84 1013.2
20260905013548 81 9 0.0 0.0 0.00 0.00 0.00 85 1013.1
20260905013056 81 9 0.0 0.0 0.00 0.00 0.00 86 1013.1
20260905012550 81 9 0.0 0.0 0.00 0.00 0.00 85 1013.0
20260905012048 81 9 0.0 0.0 0.00 0.00 0.00 84 1012.9
20260905011548 81 9 0.0 0.0 0.00 0.00 0.00 84 1012.9
20260905011047 81 9 0.0 0.0 0.00 0.00 0.00 82 1012.8
20260905010547 82 9 0.0 0.0 0.00 0.00 0.00 81 1012.8
20260905010051 82 9 0.0 0.0 0.00 0.00 0.00 81 1012.8
20260905005547 82 9 0.0 0.0 0.00 0.00 0.00 81 1012.7
20260905005047 82 9 0.0 0.0 0.00 0.00 0.00 80 1012.7
20260905004547 82 9 0.0 0.0 0.00 0.00 0.00 80 1012.7
20260905004046 83 9 0.0 0.0 0.00 0.00 0.00 78 1012.6
20260905003550 83 9 0.0 0.0 0.00 0.00 0.00 78 1012.5
20260905003046 83 9 0.0 0.0 0.00 0.00 0.00 77 1012.6
20260905002548 84 9 0.0 0.0 0.00 0.00 0.00 75 1012.5
20260905002051 85 9 0.0 0.0 0.00 0.00 0.00 75 1012.5
20260905001546 85 9 0.0 0.0 0.00 0.00 0.00 74 1012.4
20260905001045 85 9 0.0 0.0 0.00 0.00 0.00 76 1012.5
20260905000546 85 9 0.0 0.0 0.00 0.00 0.00 77 1012.5
20260905000045 85 9 0.0 0.0 0.00 0.00 0.00 73 1012.5
20260904235546 85 9 0.0 0.0 0.00 0.00 0.00 72 1012.5
20260904235047 86 9 0.0 0.0 0.00 0.00 0.00 71 1012.5
20260904234546 86 9 0.0 0.0 0.00 0.00 0.00 70 1012.3
20260904234044 87 9 0.0 0.0 0.00 0.00 0.00 69 1012.3
20260904233545 88 9 0.0 0.0 0.00 0.00 0.00 67 1012.2
20260904233044 88 9 0.0 0.0 0.00 0.00 0.00 68 1012.1